Regional Weather Roundup
Issued by NWS

Home | Current Version | Previous Version | Text Only | Print | Product List | Glossary Off
Versions: 1 2 3 4 5 6 7 8 9 10 11 12 13 14 15 16 17 18 19 20 21 22 23 24 25 26 27 28 29 30 31 32 33 34 35 36 37 38 39 40 41 42 43 44 45 46 47 48 49 50

000
ASUS43 KIND 290809
RWRIN

WEATHER ROUNDUP FOR INDIANA
NATIONAL WEATHER SERVICE INDIANAPOLIS IN
400 AM EDT FRI MAY 29 2015

NOTE: "FAIR" INDICATES FEW OR NO CLOUDS BELOW 12,000 FEET WITH NO
SIGNIFICANT WEATHER AND/OR OBSTRUCTIONS TO VISIBILITY.

* - STATION DOES NOT REPORT WEATHER SUCH AS PRECIPITATION OR FOG.

+ - STATION NOT QUALITY CONTROLLED BY THE NATIONAL WEATHER SERVICE.
    USE DATA WITH CAUTION...ESPECIALLY DEWPOINT AND RELATIVE
    HUMIDITY OBSERVATIONS.

INZ001>003-010>013-019-020-290900-
NORTHWEST INDIANA

CITY           SKY/WX    TMP DP  RH WIND       PRES   REMARKS
GARY /AIRPORT/ MOCLDY    70  67  91 SE3       30.07F
KNOX *+        PTCLDY    64  61  88 SE8       30.08F
LA PORTE +     PTCLDY    68  61  78 CALM      30.10S
MICHIGAN CITY+ PTCLDY    68  57  68 SE3       30.08F
MONTICELLO +   PTCLDY    68  64  85 SE3       30.08F
RENSSELAER +   MOCLDY    70  64  83 S6        30.08F
VALPARAISO     MOCLDY    67  59  75 SE3       30.09S

$$

LMZ046-743>745-290900-
SOUTHERN LAKE MICHIGAN

STATION/POSITION TIME  TEMP    WIND        PRES    WAVE
                       AIR SEA DIR/SP/G            HT
                 (UTC) (F)     (DEG/KT/KT) (MB)    (FT)
BURNS HARBOR     0800   70     200/  7/ 13 1019.0S
MICHIGAN CITY    0800   70     130/  9/ 11   N/A
5NW MICH CITY    0800   63 55  180/  6/  8   N/A     1

$$

INZ004-005-014>016-021>024-290900-
NORTH CENTRAL INDIANA

CITY           SKY/WX    TMP DP  RH WIND       PRES   REMARKS
GOSHEN         CLEAR     64  58  80 SE7       30.12S
LOGANSPORT +   CLEAR     64  59  82 S6        30.11S
PERU/GRISSOM   CLEAR     65  62  89 S6        30.09F
ROCHESTER +    CLEAR     64  63  94 E3        30.12S
SOUTH BEND     CLEAR     66  59  78 E8        30.11S
WARSAW +       CLEAR     63  61  94 SE3       30.12S

$$

INZ006>009-017-018-025>027-290900-
NORTHEAST INDIANA

CITY           SKY/WX    TMP DP  RH WIND       PRES   REMARKS
ANGOLA *+      CLEAR     61  52  72 CALM      30.14F
AUBURN +       PTCLDY    59  55  88 CALM      30.15S
FORT WAYNE     MOCLDY    62  59  90 NE3       30.14S
HUNTINGTON +   CLEAR     60  59  96 CALM      30.13S FOG

$$

INZ028-029-035-036-043>045-051>053-290900-
WEST CENTRAL INDIANA

CITY           SKY/WX    TMP DP  RH WIND       PRES   REMARKS
CRAWFORDSVL +  CLEAR     64  58  80 SE5       30.10S
GREENCASTLE +  CLEAR     63  59  88 CALM      30.10F
LAFAYETTE      CLEAR     65  62  90 E3        30.08F
TERRE HAUTE    CLEAR     68  64  87 SE3       30.08F

$$

INZ030>032-037>040-046>048-054>057-064-065-290900-
CENTRAL INDIANA

CITY           SKY/WX    TMP DP  RH WIND       PRES   REMARKS
CP ATTERBURY + FOG       61  61 100 CALM      30.12S VSB 3/4
FRANKFORT +    CLEAR     64  64 100 E3        30.12F
GREENWOOD *+   CLEAR     66  61  82 SE3       30.12F
INDIANAPOLIS   PTCLDY    68  62  81 SE6       30.09F
-EAGLE CREEK   CLEAR     65  61  87 CALM      30.10F
KOKOMO *+      CLEAR     64  57  77 S3        30.11S
MARION +       CLEAR     64  60  89 CALM      30.13S
MT COMFORT *+  CLEAR     66 N/A N/A CALM      30.12S
SHELBYVILLE    CLEAR     68  63  84 SE6       30.11F
ZIONSVILLE +   CLEAR     65  61  85 CALM      30.12F

$$

INZ033-034-041-042-049-050-058-059-290900-
EAST CENTRAL INDIANA

CITY           SKY/WX    TMP DP  RH WIND       PRES   REMARKS
MUNCIE         CLEAR     67  63  87 S3        30.13S

$$

INZ060-061-067>069-081>083-085>088-290900-
SOUTHWEST INDIANA

CITY           SKY/WX    TMP DP  RH WIND       PRES   REMARKS
EVANSVILLE     CLEAR     69  65  86 CALM      30.07F
HUNTINGBURG *+ CLEAR     66  61  82 SE5       30.09F
WASHINGTON +   CLEAR     66  63  87 SE5       30.07F

$$

INZ062-063-066-070>080-084-089>092-290900-
SOUTH CENTRAL AND SOUTHEAST INDIANA

CITY           SKY/WX    TMP DP  RH WIND       PRES   REMARKS
BLOOMINGTON    CLEAR     65  62  90 SE3       30.10F
MADISON *+     CLEAR     66  63  88 CALM      30.14R
NORTH VERNON + CLEAR     63  63 100 E3        30.13S FOG
SEYMOUR +      CLEAR     64  63  94 CALM      30.11S

$$




USA.gov is the U.S. government's official web portal to all federal, state and local government web resources and services.